GFSMA_850_dewp_105.txt.gz
Dewpoint
12 12 11 12 12 11 11 9 9 9 10 9 10 10 10 9 9 8 8 8 9 8 8 7 7 6 7 7 8 8 3 -0 -1 -0 -7 -9 -13 -16 -16 -16 -16 -16 -15
11 12 11 11 10 10 9 9 10 10 10 9 11 10 10 9 8 9 7 8 8 8 7 7 7 7 7 8 8 6 -3 -10 -12 -10 -10 -12 -15 -16 -16 -16 -16 -15 -14
12 12 10 11 11 10 9 10 11 10 10 11 10 10 9 8 8 8 7 9 8 8 7 7 7 7 7 7 7 3 -8 -8 -7 -10 -13 -14 -15 -15 -15 -15 -15 -13 -10
11 11 11 11 11 10 11 11 11 10 10 10 10 10 9 8 7 8 6 9 8 8 8 7 7 7 6 7 7 3 -6 -11 -8 -10 -14 -15 -15 -15 -14 -14 -13 -10 -6
10 11 11 11 11 11 10 10 10 10 10 10 11 10 8 7 7 6 9 7 8 8 7 7 7 6 7 7 7 1 -2 -8 -11 -11 -13 -13 -13 -13 -13 -11 -9 -6 -4
10 11 11 10 10 10 9 10 10 11 10 10 10 9 7 7 6 6 7 8 7 7 8 7 7 7 6 7 7 3 -4 -6 -9 -10 -11 -11 -11 -11 -9 -7 -6 -4 -3
11 10 11 10 9 8 8 10 10 10 10 10 10 9 8 7 7 7 7 6 7 7 7 7 7 8 6 7 7 6 3 5 -7 -8 -8 -8 -8 -7 -6 -5 -3 -2 -2
10 11 11 10 7 6 8 10 10 10 10 10 9 8 9 8 8 8 8 7 7 7 7 7 7 8 8 5 4 5 1 7 5 -2 -5 -5 -4 -4 -3 -2 -2 -1 -1
10 10 10 10 7 6 8 10 10 10 10 10 9 8 8 9 9 8 8 7 7 7 7 6 8 7 7 7 6 1 -0 4 7 6 -0 -2 -1 -1 -1 -0 -1 -0 -0
10 10 10 10 8 7 8 10 9 9 9 9 9 8 7 7 8 8 9 8 7 7 6 6 6 7 6 7 7 6 -2 -2 1 5 7 3 2 2 2 1 1 1 2
11 10 9 10 9 7 7 9 9 9 9 8 9 6 7 5 6 6 7 8 8 7 7 6 6 6 7 7 6 7 5 1 -1 -0 1 4 6 5 5 5 6 6 6
11 10 9 9 10 10 8 9 9 9 8 9 7 6 7 7 8 6 6 8 8 8 7 7 6 6 6 7 6 6 4 -1 -2 -2 -1 -0 1 3 4 5 5 5 6
10 10 9 9 9 9 9 9 10 10 9 9 8 7 7 8 7 6 7 7 8 8 8 7 7 6 6 6 6 2 -1 -2 -0 0 2 3 3 4 5 5 6 6 6
10 9 9 10 9 10 10 9 9 9 9 9 9 7 7 7 6 7 7 6 5 7 7 7 7 7 7 3 0 1 1 2 3 3 4 4 5 5 5 4 5 6 6
10 9 9 9 9 9 9 9 10 9 10 9 8 9 9 9 8 7 7 6 4 6 5 6 7 5 2 2 3 3 3 3 2 2 2 2 3 5 5 4 5 5 5
9 9 8 8 9 9 9 9 10 9 9 9 9 9 9 9 9 9 8 7 7 5 5 4 5 4 3 3 3 3 3 3 3 3 3 3 4 5 5 5 5 5 6
10 9 8 9 9 8 9 9 9 9 9 9 9 9 9 8 9 8 8 8 7 7 6 5 5 4 5 5 5 5 4 4 4 4 3 2 3 4 4 4 4 4 4
9 9 8 8 8 8 9 9 9 9 9 9 8 8 9 8 8 8 8 8 8 7 6 6 5 3 3 4 5 5 6 6 5 5 4 3 3 3 3 4 4 3 4
10 9 8 9 8 8 8 9 9 9 9 9 8 8 8 8 7 7 7 7 8 7 6 7 7 7 7 6 5 4 3 6 6 7 6 4 3 2 2 2 2 4 4
10 10 9 8 8 8 9 8 8 8 8 7 7 7 7 7 7 7 7 7 7 7 7 7 6 6 6 6 6 6 6 6 6 6 7 7 6 6 5 5 5 5 6
9 9 8 8 9 9 8 9 8 8 8 8 8 8 8 8 8 7 7 7 7 7 6 5 5 6 6 5 6 5 6 5 5 6 7 6 7 7 8 8 7 7 7
9 8 8 8 8 8 9 8 9 9 9 9 9 9 8 7 7 6 6 6 7 8 7 7 7 7 7 7 6 7 7 7 7 7 7 8 8 8 8 8 8 6 6
8 8 8 8 8 8 8 8 8 8 8 8 8 7 8 8 7 7 7 7 7 7 7 7 7 7 8 7 7 7 7 7 7 7 7 6 7 7 7 7 6 7 7
8 7 8 8 8 7 8 7 8 7 8 8 8 8 8 8 8 8 8 8 8 8 7 7 7 7 7 6 6 6 5 5 6 6 6 5 5 5 4 4 4 4 4
8 8 8 8 8 8 8 8 8 8 7 7 7 8 8 8 8 8 8 8 7 7 7 7 6 6 6 6 6 6 6 5 5 4 3 3 3 2 2 1 1 0 -1
6 6 7 7 7 7 7 8 8 8 8 7 7 7 7 7 7 7 7 7 6 5 5 5 5 5 5 4 4 4 4 2 2 1 1 1 -0 -1 -2 -3 -3 -4 -5

GFSMA_850_dewp_108.txt.gz
Dewpoint
12 12 12 12 12 11 11 10 10 9 9 9 9 9 9 10 10 10 8 7 7 8 8 5 7 7 8 7 5 6 8 7 -3 -12 -15 -16 -17 -18 -16 -15 -16 -15 -14
12 12 12 12 12 11 11 10 10 9 9 9 10 8 9 10 10 9 8 7 7 8 8 5 7 7 7 7 7 7 7 6 -7 -15 -14 -15 -16 -16 -15 -15 -15 -14 -13
11 12 12 12 11 11 11 11 11 9 9 10 10 9 10 10 10 9 7 6 7 8 7 5 7 7 7 6 6 5 6 4 -9 -14 -14 -15 -16 -15 -15 -14 -14 -13 -11
10 11 12 12 10 11 11 10 10 9 11 10 9 9 10 10 9 8 6 6 7 8 7 7 7 7 6 6 4 -1 5 0 -10 -12 -14 -15 -15 -14 -14 -13 -13 -12 -8
9 9 11 12 11 12 11 11 10 10 11 10 10 9 10 10 9 7 6 6 7 8 7 7 7 7 6 6 5 0 -0 -0 -5 -11 -13 -14 -14 -14 -13 -12 -11 -8 -5
10 10 10 11 11 11 11 10 10 10 10 10 10 10 10 8 7 7 7 7 7 7 7 6 7 7 7 6 6 2 7 4 -6 -7 -9 -12 -12 -12 -12 -11 -9 -7 -4
9 10 10 11 12 11 11 10 10 10 10 10 11 10 10 9 6 6 8 7 7 6 7 6 6 6 7 6 6 6 3 8 7 -0 -7 -8 -10 -10 -10 -8 -6 -5 -3
10 10 10 11 11 10 9 8 8 10 10 10 10 10 9 9 8 6 8 9 7 5 7 7 7 6 6 6 4 5 1 7 7 7 -0 -2 -8 -8 -7 -6 -4 -3 -2
10 9 10 11 10 10 7 6 8 10 11 10 10 9 9 8 8 7 6 6 8 6 6 5 7 7 6 6 5 2 1 -1 6 6 2 -1 -5 -5 -5 -3 -3 -2 -1
6 9 10 11 10 9 7 6 9 10 10 9 10 9 8 6 7 8 8 6 8 8 7 6 5 6 7 7 6 7 4 -5 -5 0 3 3 -1 -2 -1 -0 0 0 0
6 10 11 10 9 9 7 6 9 10 9 10 9 8 7 7 7 7 8 7 6 7 8 7 7 5 5 6 7 7 6 5 -3 -2 1 4 6 2 2 3 3 4 4
8 11 10 10 9 9 9 6 9 9 9 10 9 8 8 7 6 4 6 5 5 6 6 7 7 7 7 6 5 5 6 5 4 -0 -2 -1 -1 2 3 4 5 5 5
7 11 10 10 9 9 8 7 8 8 8 9 9 8 8 7 6 6 6 7 7 7 7 6 6 5 6 7 6 6 5 5 3 -0 -2 -2 -2 -1 -0 1 3 4 5
2 7 10 10 11 9 10 9 8 9 9 9 9 8 8 7 7 7 6 7 8 8 7 7 7 7 6 6 7 7 6 3 0 -1 -0 1 2 3 3 4 4 5 5
8 7 10 10 10 9 9 9 9 9 9 9 10 9 8 8 8 8 7 7 7 7 7 5 5 7 7 6 3 3 3 1 1 1 3 3 3 3 3 5 5 5 5
9 8 8 9 9 10 9 9 9 9 9 9 9 9 9 9 7 7 8 8 7 6 6 5 5 4 6 5 4 3 3 3 3 3 3 3 3 3 3 3 3 4 4
9 7 9 9 9 9 9 9 9 9 9 9 9 9 9 8 8 9 9 8 8 8 7 6 5 5 5 5 6 6 5 4 4 3 3 3 3 3 3 3 3 4 4
7 6 9 10 9 10 9 9 9 8 9 9 9 9 9 9 9 9 8 9 9 9 8 8 7 6 5 5 4 4 5 5 5 5 4 3 4 4 4 4 4 4 4
8 9 9 9 9 9 9 9 9 9 9 8 9 9 9 9 8 8 8 8 8 8 8 8 8 7 6 4 4 5 5 5 5 4 4 5 4 4 6 5 5 5 5
9 9 8 8 8 8 8 8 9 9 9 9 8 8 9 8 8 8 8 7 7 8 8 8 7 7 6 5 6 7 6 6 6 5 5 5 5 6 7 8 7 7 7
8 8 8 8 8 9 8 8 8 8 8 8 7 8 8 8 7 7 7 7 7 7 6 6 7 7 7 7 6 5 6 6 6 7 6 6 7 8 8 8 8 7 7
8 8 8 8 8 8 8 8 8 8 8 8 8 8 7 7 7 7 7 7 7 7 7 8 7 7 6 6 6 6 7 7 7 7 7 7 7 7 7 7 6 7 7
8 8 8 8 9 8 8 8 8 9 8 8 8 8 8 8 8 8 7 7 7 7 7 7 8 7 8 7 7 7 7 7 7 7 7 6 6 6 5 5 5 5 5
8 8 8 8 8 8 8 8 7 8 8 8 8 8 8 8 8 8 8 8 8 8 7 7 7 7 7 7 7 7 7 7 7 6 6 6 5 5 4 4 3 3 2
8 8 8 8 8 8 7 8 8 7 7 7 7 7 8 8 7 8 8 7 7 7 7 7 7 7 7 7 7 7 6 6 5 5 4 3 3 2 1 0 -0 -1 -2
6 6 6 6 6 7 8 8 8 7 7 7 7 7 7 7 7 7 7 7 6 6 6 6 5 5 5 4 4 4 4 3 2 2 2 1 0 -1 -2 -2 -3 -4 -5

GFSMA_850_dewp_111.txt.gz
Dewpoint
11 11 11 11 11 12 12 11 10 10 9 8 8 9 9 9 9 10 10 9 8 8 7 8 8 7 7 7 8 8 1 -4 -1 -1 -11 -16 -19 -19 -18 -16 -15 -14 -13
11 11 11 12 12 11 11 11 11 10 9 9 8 9 9 10 9 10 10 9 8 7 6 6 6 6 8 8 7 7 0 -3 -6 -6 -10 -14 -17 -17 -15 -14 -14 -13 -12
11 11 12 12 11 12 12 11 11 10 10 9 9 9 10 10 10 10 10 8 8 7 7 5 6 7 7 8 8 7 5 -5 -5 -10 -7 -13 -15 -15 -14 -14 -13 -13 -11
11 11 11 12 12 11 11 11 11 11 11 10 9 10 9 9 10 10 9 8 7 7 7 6 5 7 6 7 7 6 2 -5 -10 -7 -5 -13 -15 -15 -14 -13 -13 -12 -10
10 11 11 12 12 11 11 11 12 11 10 9 10 9 9 9 10 10 9 7 7 6 7 5 6 7 6 7 6 5 1 -4 -10 -8 -6 -11 -14 -14 -14 -13 -13 -12 -9
7 10 9 11 11 12 11 11 11 11 10 10 10 9 8 9 10 10 7 6 6 7 7 6 7 7 7 6 6 5 2 1 -5 -0 -2 -10 -13 -13 -13 -13 -12 -10 -7
2 6 8 10 11 11 11 12 11 11 11 11 10 10 10 9 10 10 7 6 6 7 7 7 6 7 7 7 7 6 4 3 1 1 -1 -8 -11 -12 -12 -12 -11 -8 -6
3 4 8 10 11 10 11 11 11 11 10 9 9 10 10 10 9 9 7 7 7 6 7 6 5 6 7 6 7 7 6 3 3 1 -1 -1 -7 -10 -10 -10 -9 -7 -5
5 5 8 9 11 11 11 10 11 11 10 9 10 10 9 9 9 9 8 7 7 6 6 6 6 6 6 6 6 5 6 4 6 6 -1 -5 -5 -8 -8 -7 -5 -4 -3
7 7 7 8 10 10 10 10 8 7 10 10 10 10 8 8 8 9 9 8 7 7 6 6 6 6 7 6 6 5 4 2 -2 -0 4 -2 -3 -5 -5 -4 -3 -2 -1
9 10 8 8 9 9 9 9 7 7 9 10 10 10 8 8 8 7 8 7 8 8 7 6 7 5 6 5 5 6 7 6 2 -3 -2 3 2 -2 -2 -1 -1 -0 0
10 10 7 9 8 9 9 8 7 8 9 10 10 10 8 8 8 7 7 6 6 8 8 8 7 7 6 5 4 5 6 6 5 3 -2 -2 1 1 -0 1 2 2 3
9 8 7 9 11 9 9 9 7 8 10 10 9 10 8 8 8 7 7 6 6 6 7 8 7 7 7 6 6 6 5 6 5 3 3 2 -1 -1 -1 -2 -1 -0 2
9 10 7 9 10 9 8 9 7 9 8 9 9 9 8 8 8 7 7 6 7 5 4 6 7 7 7 7 7 7 6 6 5 4 4 3 2 -0 -1 -1 -0 1 2
9 8 7 10 10 10 9 9 7 8 8 8 8 9 9 8 8 8 7 6 7 7 7 6 6 6 6 6 6 6 6 5 4 3 3 2 0 1 3 3 3 3 4
10 7 7 9 10 10 10 10 10 9 9 9 9 9 9 9 8 8 8 7 8 7 7 6 6 6 5 6 7 7 6 4 4 4 4 3 3 4 4 3 3 3 4
10 10 8 9 9 9 9 9 9 9 9 9 9 9 9 9 9 9 8 8 8 8 8 6 6 6 6 5 6 6 4 5 6 6 5 5 4 4 4 3 3 3 3
10 10 9 8 9 9 8 8 9 9 9 9 9 9 9 9 9 9 9 8 8 9 8 7 7 8 7 7 6 5 5 6 6 5 4 4 5 5 5 4 4 5 6
10 10 9 8 10 9 8 8 9 9 8 9 9 9 8 9 9 9 8 8 9 9 9 8 8 9 8 7 7 6 5 4 4 5 4 5 5 6 6 5 5 6 6
10 9 8 9 9 8 9 9 9 8 9 9 9 8 9 8 8 9 9 8 8 8 8 8 8 8 8 8 8 6 6 5 5 6 6 6 6 7 7 7 7 7 7
9 9 8 8 8 8 8 8 9 8 9 9 9 9 8 8 8 8 7 8 8 7 7 7 7 7 6 7 7 7 6 6 6 6 6 7 7 7 7 7 7 7 7
9 8 8 8 8 8 8 8 8 8 8 8 7 7 7 7 7 7 7 6 6 6 6 6 6 6 6 6 6 6 6 6 6 6 7 7 7 7 7 6 6 5 5
9 8 8 8 8 8 8 7 7 7 8 8 7 7 7 7 7 7 7 7 7 7 7 8 7 7 7 6 6 7 7 7 6 7 7 7 6 6 5 4 4 4 3
8 8 8 8 8 8 8 8 8 8 8 8 8 8 8 8 8 8 8 7 7 8 7 7 7 7 7 7 7 7 7 7 7 6 6 5 5 4 3 2 2 1 1
8 8 8 8 8 8 8 8 8 8 8 8 8 8 8 8 8 8 8 8 8 8 7 7 7 7 7 7 7 7 6 6 5 5 4 4 3 2 1 -0 -1 -1 -2
3 0 3 3 6 7 8 8 8 8 8 8 7 7 7 8 8 7 7 7 7 6 6 6 6 6 6 6 6 5 5 4 4 3 2 1 1 -0 -1 -2 -3 -4 -5

GFSMA_850_dewp_114.txt.gz
Dewpoint
8 10 10 10 11 11 11 11 10 10 9 9 9 9 9 9 9 9 9 10 10 9 8 8 6 1 5 6 6 8 7 7 3 -5 -7 -1 -3 -15 -18 -16 -15 -14 -13
8 10 10 10 11 11 11 11 11 11 10 10 9 8 9 9 9 9 9 10 9 9 8 8 6 0 4 5 8 8 7 7 2 -6 -9 -10 -4 -13 -16 -15 -15 -14 -12
5 9 10 10 11 12 11 11 11 12 11 10 10 9 9 9 9 10 9 10 10 9 8 7 6 2 1 6 8 8 8 7 0 -9 -12 -14 -9 -11 -14 -14 -14 -14 -12
5 9 10 11 11 12 11 12 11 11 11 10 10 10 9 9 10 10 10 10 10 8 8 7 6 1 6 7 8 7 8 7 -0 -9 -9 -13 -12 -12 -13 -13 -14 -14 -12
2 7 10 10 12 12 12 12 11 11 11 11 11 11 9 10 10 10 10 10 9 8 7 7 5 6 7 7 8 7 7 7 3 -4 -6 -11 -13 -13 -13 -13 -13 -13 -12
4 4 9 11 11 12 12 12 12 12 11 11 11 10 10 10 10 9 10 10 9 8 7 7 6 5 7 7 7 6 7 7 0 1 -6 -11 -12 -13 -13 -13 -13 -13 -12
6 5 8 9 11 12 12 12 12 11 11 11 10 10 10 9 10 9 9 10 9 7 8 7 5 6 7 7 6 6 6 6 5 4 1 -7 -13 -13 -13 -13 -12 -12 -11
7 4 5 6 8 11 12 10 10 10 10 10 10 10 10 10 10 10 10 9 8 7 8 7 6 7 7 7 6 6 6 7 8 7 7 -2 -10 -12 -12 -12 -11 -11 -9
10 6 5 6 7 9 11 11 10 10 10 10 10 9 10 10 10 10 10 9 7 7 7 7 7 7 7 7 6 6 6 7 7 7 5 5 -4 -9 -10 -10 -10 -9 -7
10 8 6 7 7 9 10 10 10 11 10 10 9 10 9 9 9 9 9 8 8 7 6 6 6 5 5 6 6 6 5 5 5 6 7 6 -1 -4 -7 -7 -7 -6 -5
11 10 7 9 9 9 10 10 11 11 11 11 10 9 9 9 9 9 9 9 9 7 6 6 6 6 6 6 6 5 6 5 5 4 4 6 3 1 -2 -4 -5 -4 -2
12 11 10 9 10 9 9 10 10 10 9 8 9 9 9 9 9 9 9 9 9 9 8 7 6 6 7 5 6 5 4 6 6 6 2 -0 -0 1 1 -1 -2 -1 -0
12 12 11 8 11 10 10 9 10 9 7 8 9 10 10 9 9 8 8 9 8 8 6 4 6 6 7 5 6 5 4 5 6 6 6 5 3 -1 -1 2 2 3 3
11 11 10 8 11 11 9 10 10 8 7 9 9 10 9 9 8 8 7 7 8 8 8 8 7 7 7 6 6 6 6 6 6 6 6 5 4 5 3 1 -1 -1 -1
12 11 10 9 10 11 10 10 10 9 8 9 10 8 9 9 9 9 8 7 7 7 7 7 7 6 7 6 6 7 7 7 7 7 6 5 5 5 4 3 2 1 2
11 11 10 10 9 10 10 10 10 9 8 9 9 9 9 9 9 9 8 8 8 7 6 5 4 4 5 7 7 7 7 7 5 6 6 6 5 5 5 3 3 4 4
11 11 10 10 9 9 10 9 9 9 8 9 9 9 9 9 8 8 9 8 8 7 7 7 7 7 7 7 7 6 7 8 7 4 6 5 5 5 5 5 5 5 5
11 10 11 8 7 10 9 9 9 9 9 9 9 9 9 9 9 9 9 9 8 8 8 8 8 8 7 7 6 7 7 6 6 5 6 5 5 6 5 6 5 4 4
11 11 10 9 9 9 9 9 8 8 9 9 9 9 9 9 9 9 9 9 9 8 8 9 8 8 8 7 8 8 7 6 6 6 6 6 5 5 6 6 6 6 6
11 10 10 10 9 8 8 8 8 9 9 9 9 9 9 9 9 9 9 9 9 9 9 8 8 8 8 8 8 8 8 6 6 6 5 5 5 7 6 6 6 6 7
11 10 10 10 8 8 8 9 8 8 9 9 8 8 9 8 8 8 8 8 8 9 8 8 8 8 8 8 8 8 8 8 7 6 7 7 7 7 7 6 7 7 7
10 10 10 8 8 8 8 8 9 9 8 9 8 9 8 9 8 8 8 8 7 7 7 8 7 7 6 6 6 6 6 7 7 7 7 7 7 6 6 6 6 6 6
9 9 9 9 8 8 8 8 7 8 9 8 8 8 8 7 7 7 6 6 6 7 7 7 7 6 5 6 6 6 7 7 7 7 7 7 6 6 5 5 5 5 4
9 9 8 8 9 8 8 7 7 7 8 8 7 7 7 7 7 7 6 6 6 6 6 7 7 7 7 7 6 6 6 7 7 7 7 6 5 4 4 3 2 1 1
5 6 8 8 8 8 8 8 7 7 7 8 7 7 7 7 7 7 7 7 7 6 7 7 7 7 7 7 7 7 7 7 7 6 5 5 4 3 0 0 -1 -1 -2
1 1 1 4 4 6 7 8 8 8 8 8 7 7 8 8 8 8 8 8 8 8 7 7 7 7 7 7 7 6 6 5 5 5 4 3 2 1 -1 -2 -3 -4 -4

GFSMA_850_dewp_117.txt.gz
Dewpoint
4 7 9 9 10 11 11 10 9 9 9 9 9 9 9 9 8 8 9 9 10 9 8 9 8 8 3 5 8 8 8 8 7 5 1 -6 -7 -7 -6 -12 -13 -13 -13
3 5 8 9 10 11 11 11 10 10 10 10 9 9 9 9 9 8 9 9 10 10 10 9 9 8 3 4 7 8 8 8 8 6 -0 -1 -4 -9 -12 -13 -14 -13 -12
2 4 7 9 10 11 11 11 11 11 11 11 10 10 9 8 9 9 9 9 10 10 10 10 9 9 6 4 6 7 7 8 5 5 3 -1 -3 -13 -15 -13 -14 -13 -12
2 4 7 8 10 10 11 11 11 11 11 11 11 10 10 9 9 9 9 10 10 10 10 10 9 9 8 5 7 8 8 7 7 8 6 3 -0 -12 -14 -13 -13 -13 -13
4 3 5 7 10 11 11 12 12 11 11 11 11 10 10 10 9 9 10 10 10 10 9 9 9 8 8 5 7 7 7 7 7 7 5 3 0 -7 -13 -13 -13 -13 -13
5 4 4 7 10 11 12 12 12 12 11 11 11 11 11 11 10 9 10 10 10 10 9 9 8 8 7 7 7 7 7 7 6 7 7 4 0 -1 -10 -12 -13 -13 -13
7 5 4 7 10 11 12 11 12 12 12 11 10 11 10 11 10 10 10 10 10 10 9 9 8 7 7 7 8 7 7 7 7 8 7 7 4 -8 -9 -11 -12 -12 -12
8 7 6 5 9 11 12 11 11 10 10 10 10 11 10 9 9 10 9 10 9 10 10 8 8 7 6 7 7 7 7 6 7 8 7 7 1 -7 -5 -11 -12 -12 -12
10 8 7 5 7 10 13 11 11 10 10 10 10 10 10 9 9 10 9 10 9 10 9 8 8 7 6 7 7 7 6 6 7 7 7 7 6 -4 -7 -10 -10 -11 -11
10 10 9 7 6 8 10 11 12 11 9 9 10 10 10 9 9 9 9 9 10 9 9 8 8 7 7 7 7 7 6 6 6 7 7 7 7 4 1 -4 -8 -9 -9
10 11 10 8 6 7 9 10 10 10 11 10 10 9 9 9 9 9 9 9 9 9 8 7 7 7 7 7 6 7 6 6 6 5 5 6 7 7 4 2 -1 -5 -6
10 11 11 10 7 6 7 9 10 10 10 10 10 9 9 9 9 9 9 9 9 8 8 7 7 6 6 5 5 6 6 5 6 5 5 4 4 6 5 5 2 1 -3
8 10 11 11 10 8 8 9 11 11 11 11 10 10 9 8 9 9 9 9 9 8 8 7 7 7 6 6 6 6 6 5 5 6 6 5 4 2 1 0 1 4 2
6 8 10 12 11 11 10 11 11 11 11 10 10 9 8 8 9 9 9 9 9 9 8 8 7 4 5 6 6 5 5 6 5 6 6 6 6 6 5 4 2 1 2
7 8 10 12 12 12 11 11 10 10 10 10 9 8 9 8 10 9 9 9 8 8 9 8 7 5 2 6 6 6 6 6 6 6 6 6 6 6 5 6 5 5 3
8 8 9 12 12 12 11 11 10 9 9 10 9 8 9 9 8 9 9 9 8 8 7 6 6 5 4 7 6 7 7 7 6 6 6 7 7 7 6 6 6 5 5
9 8 8 10 11 11 11 11 10 9 9 9 9 9 9 9 9 9 9 9 9 8 7 7 7 6 6 5 4 6 5 5 6 7 6 5 7 7 6 6 6 6 6
9 9 8 9 10 10 10 10 9 8 8 9 9 9 9 8 9 9 9 9 8 8 8 7 7 7 6 5 6 7 7 7 7 7 8 4 4 7 7 6 6 7 6
9 9 9 10 10 10 10 10 9 8 8 9 8 8 9 9 9 9 8 9 9 9 8 8 7 7 8 8 8 7 7 8 7 8 8 7 4 7 6 6 5 5 6
9 8 9 9 11 9 8 9 8 8 9 8 8 8 8 9 9 9 9 9 9 9 9 8 8 9 8 8 8 8 8 7 8 7 7 7 6 6 6 5 5 6 6
10 9 9 10 10 10 9 8 8 8 8 9 9 9 9 9 9 8 8 9 9 9 8 8 8 8 8 8 8 8 8 8 8 7 7 6 6 6 6 6 6 7 7
10 11 10 11 10 10 9 8 8 8 8 9 9 9 9 8 8 9 8 8 8 8 8 8 8 8 8 8 8 8 8 8 7 7 7 7 6 7 7 7 7 6 6
9 10 10 10 10 9 9 8 7 8 8 9 9 9 7 8 8 8 8 8 8 8 7 7 7 7 7 7 7 6 6 6 7 7 7 7 7 7 6 6 6 6 6
3 7 9 9 9 9 8 8 8 8 8 8 7 7 8 8 8 8 8 7 7 7 7 6 7 7 7 7 6 6 6 7 7 7 7 6 6 5 5 4 3 4 4
2 2 2 6 6 8 8 8 8 8 8 7 8 8 8 8 7 7 7 6 6 6 6 5 5 5 6 6 7 7 7 7 6 7 6 6 5 3 2 1 0 -1 0
1 1 2 2 2 3 6 8 8 8 8 7 7 7 7 7 7 7 7 7 7 7 6 6 7 7 7 7 7 7 7 7 7 6 5 4 3 2 -1 -1 -1 -1 -2